Overview Statistics Trail Chart Weather Telemetry Raw packets
 

This is the latest recevied weather packets stored in our database for station/object SV1JSO-13. If no packets are shown the sender has not sent any weather packets the latest 10 day(s).

<< 33 34 35 36 37 38 39 >>
Time Temp. Humidity Pressure Rain* Wind** Luminosity Snow
1788437700 32.78° C 31% 1005.8 hPa 0 mm - 646 W/m² -
1788437400 32.78° C 31% 1006 hPa 0 mm - 643 W/m² -
1788437100 32.78° C 32% 1005.8 hPa 0 mm - 649 W/m² -
1788436800 33.33° C 32% 1006.2 hPa 0 mm - 671 W/m² -
1788436500 32.78° C 32% 1006.1 hPa 0 mm - 663 W/m² -
1788436200 32.78° C 33% 1006.1 hPa 0 mm - 681 W/m² -
1788435900 32.22° C 33% 1006.1 hPa 0 mm - 686 W/m² -
1788435600 33.33° C 33% 1006.2 hPa 0 mm - 690 W/m² -
1788435300 32.78° C 34% 1006.3 hPa 0 mm - 705 W/m² -
1788435000 32.78° C 34% 1006.3 hPa 0 mm - 700 W/m² -
1788434700 33.33° C 34% 1006.2 hPa 0 mm - 705 W/m² -
1788434400 33.33° C 35% 1006.3 hPa 0 mm - 705 W/m² -
1788434100 32.78° C 35% 1006.3 hPa 0 mm - 712 W/m² -
1788433800 32.78° C 35% 1006.4 hPa 0 mm - 714 W/m² -
1788433500 33.33° C 33% 1006.4 hPa 0 mm - 720 W/m² -
1788433200 32.78° C 33% 1006.4 hPa 0 mm - 728 W/m² -
1788432900 33.33° C 34% 1006.4 hPa 0 mm - 729 W/m² -
1788432600 33.33° C 33% 1006.4 hPa 0 mm - 725 W/m² -
1788432301 32.78° C 33% 1006.3 hPa 0 mm - 729 W/m² -
1788432000 32.78° C 33% 1006.4 hPa 0 mm - 725 W/m² -
1788431700 32.78° C 32% 1006.4 hPa 0 mm - 729 W/m² -
1788431400 33.33° C 33% 1006.5 hPa 0 mm - 735 W/m² -
1788431100 33.33° C 33% 1006.4 hPa 0 mm - 723 W/m² -
1788430801 33.33° C 33% 1006.4 hPa 0 mm - 724 W/m² -
1788430501 32.78° C 33% 1006.4 hPa 0 mm - 722 W/m² -

* Rain latest hour (hover to see other rain measurements)
** Current wind speed in m/s (hover to see current wind gust speed)